Location: North Evanston
(42.0634°N, 87.6976°W)
Time: 23:31:28
(UTC+00:00)

Transit 2A - Pass Details

Date: 17 May 2026
Orbit: 595 x 949 km, 66.7° (Epoch: 5 June)

Event Time Altitude Azimuth Distance (km) Brightness Sun altitude
Rises 19:06:18 0° 154° (SSE) 3,594 9.6 61.9°
Reaches altitude 10° 19:10:24 10° 129° (SE) 2,626 8.9 61.4°
Maximum altitude 19:13:03 13° 103° (ESE) 2,379 8.5 61.0°
Drops below altitude 10° 19:15:40 10° 77° (ENE) 2,566 8.6 60.7°
Sets 19:19:33 0° 51° (NE) 3,442 9.1 60.1°
